Meteo pe oră la Sosnowiec

Astăzi, 30 Septembrie, Miercuri

Timp Temperatura Precipitaţii Vânt Presiune Umiditate
00:00 +12°C° 0.8 mm 3 m/s 735 mmHg 94%
01:00 +12°C° 0.8 mm 3 m/s 735 mmHg 94%
02:00 +12°C° 0.4 mm 3 m/s 734 mmHg 93%
03:00 +12°C° 0.4 mm 4 m/s 734 mmHg 93%
04:00 +12°C° 0.4 mm 4 m/s 734 mmHg 93%
05:00 +12°C° 0.2 mm 4 m/s 734 mmHg 92%
06:00 +12°C° 0.2 mm 4 m/s 734 mmHg 91%
07:00 +12°C° 0.2 mm 4 m/s 734 mmHg 91%
08:00 +12°C° 0.1 mm 4 m/s 734 mmHg 88%
09:00 +12°C° 0.1 mm 4 m/s 734 mmHg 86%
10:00 +13°C° 0.1 mm 4 m/s 734 mmHg 83%
11:00 +12°C° 0.5 mm 4 m/s 733 mmHg 84%
12:00 +12°C° 0.5 mm 4 m/s 733 mmHg 85%
13:00 +12°C° 0.5 mm 4 m/s 733 mmHg 87%
14:00 +12°C° 0.4 mm 4 m/s 733 mmHg 86%
15:00 +13°C° 0.4 mm 4 m/s 732 mmHg 85%
16:00 +13°C° 0.4 mm 4 m/s 732 mmHg 84%
17:00 +13°C° 0.6 mm 4 m/s 732 mmHg 86%
18:00 +13°C° 0.6 mm 4 m/s 732 mmHg 88%
19:00 +13°C° 0.6 mm 4 m/s 732 mmHg 89%
20:00 +13°C° 1.1 mm 4 m/s 732 mmHg 90%
21:00 +13°C° 1.1 mm 4 m/s 732 mmHg 91%
22:00 +13°C° 1.1 mm 4 m/s 731 mmHg 91%
23:00 +12°C° 0.7 mm 3 m/s 731 mmHg 92%

Mâine, 1 Octombrie, Joi

Timp Temperatura Precipitaţii Vânt Presiune Umiditate
00:00 +12°C° 0.7 mm 3 m/s 731 mmHg 92%
01:00 +12°C° 0.7 mm 3 m/s 731 mmHg 93%
02:00 +12°C° 0.4 mm 3 m/s 730 mmHg 93%
03:00 +12°C° 0.4 mm 3 m/s 730 mmHg 94%
04:00 +12°C° 0.4 mm 3 m/s 730 mmHg 94%
05:00 +12°C° 0.6 mm 3 m/s 730 mmHg 94%
06:00 +12°C° 0.6 mm 3 m/s 729 mmHg 94%
07:00 +12°C° 0.6 mm 3 m/s 729 mmHg 93%
08:00 +12°C° 0.3 mm 3 m/s 729 mmHg 92%
09:00 +12°C° 0.3 mm 3 m/s 729 mmHg 92%
10:00 +12°C° 0.3 mm 2 m/s 729 mmHg 91%
11:00 +12°C° 0.3 mm 2 m/s 728 mmHg 91%
12:00 +12°C° 0.3 mm 2 m/s 728 mmHg 91%
13:00 +12°C° 0.3 mm 2 m/s 728 mmHg 91%
14:00 +12°C° 0.4 mm 2 m/s 728 mmHg 91%
15:00 +12°C° 0.4 mm 2 m/s 728 mmHg 92%
16:00 +12°C° 0.4 mm 2 m/s 728 mmHg 92%
17:00 +12°C° 0.4 mm 1 m/s 728 mmHg 93%
18:00 +12°C° 0.4 mm 1 m/s 728 mmHg 93%
19:00 +12°C° 0.4 mm 1 m/s 729 mmHg 94%
20:00 +12°C° 0.1 mm 1 m/s 729 mmHg 94%
21:00 +12°C° 0.1 mm 1 m/s 729 mmHg 94%
22:00 +11°C° 0.1 mm 0 m/s 729 mmHg 94%
23:00 +11°C° 0.1 mm 0 m/s 729 mmHg 94%

Poimâine, 2 Octombrie, Vineri

Timp Temperatura Precipitaţii Vânt Presiune Umiditate
00:00 +11°C° 0.1 mm 0 m/s 729 mmHg 94%
01:00 +11°C° 0.1 mm 0 m/s 729 mmHg 94%
02:00 +11°C° 0 mm 0 m/s 729 mmHg 94%
03:00 +11°C° 0 mm 0 m/s 729 mmHg 94%
04:00 +11°C° 0 mm 0 m/s 729 mmHg 94%
05:00 +12°C° 0 mm 1 m/s 729 mmHg 93%
06:00 +12°C° 0 mm 1 m/s 729 mmHg 92%
07:00 +12°C° 0 mm 1 m/s 730 mmHg 92%
08:00 +13°C° 0 mm 1 m/s 730 mmHg 87%
09:00 +14°C° 0 mm 2 m/s 730 mmHg 82%
10:00 +15°C° 0 mm 2 m/s 730 mmHg 77%
11:00 +16°C° 0 mm 2 m/s 730 mmHg 72%
12:00 +17°C° 0 mm 2 m/s 730 mmHg 67%
13:00 +18°C° 0 mm 2 m/s 730 mmHg 63%
14:00 +18°C° 0 mm 2 m/s 730 mmHg 65%
15:00 +17°C° 0 mm 2 m/s 730 mmHg 66%
16:00 +17°C° 0 mm 3 m/s 730 mmHg 68%
17:00 +16°C° 0 mm 3 m/s 730 mmHg 73%
18:00 +14°C° 0 mm 3 m/s 730 mmHg 77%
19:00 +13°C° 0 mm 3 m/s 730 mmHg 82%
20:00 +13°C° 0 mm 3 m/s 730 mmHg 81%
21:00 +14°C° 0 mm 4 m/s 730 mmHg 80%
22:00 +14°C° 0 mm 4 m/s 729 mmHg 79%
23:00 +14°C° 0 mm 4 m/s 729 mmHg 78%

3 Octombrie, Sâmbătă

Timp Temperatura Precipitaţii Vânt Presiune Umiditate
00:00 +14°C° 0 mm 4 m/s 729 mmHg 76%
01:00 +14°C° 0 mm 4 m/s 729 mmHg 74%
02:00 +14°C° 0 mm 4 m/s 728 mmHg 76%
03:00 +14°C° 0 mm 5 m/s 728 mmHg 77%
04:00 +14°C° 0 mm 5 m/s 728 mmHg 79%
05:00 +14°C° 0 mm 5 m/s 728 mmHg 77%
06:00 +14°C° 0 mm 5 m/s 728 mmHg 74%
07:00 +15°C° 0 mm 5 m/s 728 mmHg 72%
08:00 +17°C° 0 mm 5 m/s 728 mmHg 66%
09:00 +19°C° 0 mm 5 m/s 727 mmHg 60%
10:00 +21°C° 0 mm 5 m/s 727 mmHg 54%
11:00 +23°C° 0 mm 5 m/s 727 mmHg 50%
12:00 +25°C° 0 mm 5 m/s 727 mmHg 46%
13:00 +26°C° 0 mm 5 m/s 727 mmHg 42%
14:00 +26°C° 0 mm 5 m/s 727 mmHg 45%
15:00 +25°C° 0 mm 4 m/s 727 mmHg 49%
16:00 +24°C° 0 mm 3 m/s 727 mmHg 53%
17:00 +22°C° 0 mm 3 m/s 726 mmHg 57%
18:00 +21°C° 0 mm 4 m/s 726 mmHg 60%
19:00 +19°C° 0 mm 4 m/s 726 mmHg 64%
20:00 +19°C° 0 mm 4 m/s 726 mmHg 65%
21:00 +19°C° 0 mm 4 m/s 726 mmHg 65%
22:00 +19°C° 0 mm 5 m/s 725 mmHg 65%
23:00 +19°C° 0 mm 4 m/s 725 mmHg 64%

4 Octombrie, Duminică

Timp Temperatura Precipitaţii Vânt Presiune Umiditate
00:00 +19°C° 0 mm 4 m/s 725 mmHg 63%
01:00 +19°C° 0 mm 4 m/s 724 mmHg 62%
02:00 +19°C° 0 mm 5 m/s 724 mmHg 61%
03:00 +19°C° 0 mm 5 m/s 724 mmHg 60%
04:00 +20°C° 0 mm 6 m/s 724 mmHg 59%
05:00 +19°C° 0 mm 5 m/s 725 mmHg 62%
06:00 +19°C° 0 mm 4 m/s 725 mmHg 64%
07:00 +18°C° 0 mm 3 m/s 726 mmHg 67%
08:00 +19°C° 0 mm 3 m/s 726 mmHg 61%
09:00 +20°C° 0 mm 4 m/s 727 mmHg 56%
10:00 +20°C° 0 mm 4 m/s 727 mmHg 50%
11:00 +21°C° 0 mm 4 m/s 728 mmHg 47%
12:00 +21°C° 0 mm 4 m/s 728 mmHg 43%
13:00 +22°C° 0 mm 4 m/s 729 mmHg 39%
14:00 +22°C° 0 mm 3 m/s 729 mmHg 43%
15:00 +21°C° 0 mm 3 m/s 729 mmHg 46%
16:00 +20°C° 0 mm 2 m/s 729 mmHg 50%
17:00 +19°C° 0 mm 2 m/s 729 mmHg 53%
18:00 +19°C° 0 mm 1 m/s 729 mmHg 57%
19:00 +16°C° 0 mm 1 m/s 729 mmHg 61%
20:00 +16°C° 0 mm 1 m/s 730 mmHg 63%
21:00 +15°C° 0 mm 2 m/s 730 mmHg 65%
22:00 +15°C° 0 mm 2 m/s 730 mmHg 67%
23:00 +15°C° 0 mm 2 m/s 729 mmHg 68%

5 Octombrie, Luni

Timp Temperatura Precipitaţii Vânt Presiune Umiditate
00:00 +14°C° 0 mm 2 m/s 729 mmHg 69%
01:00 +14°C° 0 mm 2 m/s 729 mmHg 70%
02:00 +14°C° 0 mm 2 m/s 729 mmHg 70%
03:00 +14°C° 0 mm 2 m/s 728 mmHg 70%
04:00 +13°C° 0 mm 3 m/s 728 mmHg 70%
05:00 +13°C° 0 mm 3 m/s 728 mmHg 68%
06:00 +13°C° 0 mm 3 m/s 727 mmHg 67%
07:00 +13°C° 0 mm 3 m/s 727 mmHg 66%
08:00 +17°C° 0 mm 3 m/s 727 mmHg 59%
09:00 +19°C° 0 mm 4 m/s 727 mmHg 53%
10:00 +21°C° 0 mm 5 m/s 727 mmHg 47%
11:00 +21°C° 0 mm 6 m/s 727 mmHg 45%
12:00 +22°C° 0 mm 6 m/s 728 mmHg 44%
13:00 +22°C° 0 mm 6 m/s 728 mmHg 43%
14:00 +21°C° 0 mm 5 m/s 727 mmHg 46%
15:00 +21°C° 0 mm 4 m/s 727 mmHg 49%
16:00 +20°C° 0 mm 4 m/s 727 mmHg 53%
17:00 +19°C° 0.2 mm 3 m/s 727 mmHg 57%
18:00 +18°C° 0.2 mm 3 m/s 727 mmHg 61%
19:00 +17°C° 0.2 mm 2 m/s 728 mmHg 65%
20:00 +16°C° 0.2 mm 2 m/s 728 mmHg 68%
21:00 +16°C° 0.2 mm 2 m/s 728 mmHg 70%
22:00 +16°C° 0.2 mm 1 m/s 728 mmHg 72%
23:00 +15°C° 0 mm 1 m/s 728 mmHg 74%
Arată mai mult

We Need Your Consent

Meteoprog and our Service Providers may store and access personal data such as cookies, device identifiers or other similar technologies on your device and process such data to personalise content and ads, as well as provide social media features and to analyse the traffic.

  • Store and/or access information on your device

    Cookies, device identifiers or other information can be stored or accessed on your device for the purposes indicated above.

  • Personalised ads and content, ad and content measurement, audience insights, and products development

    Ads and content can be personalised based on a profile. More data can be added to better personalise ads and content. Ad and content performance can be measured. Insights about the audience who saw the ads and content can be derived. Such data can be used to develop or improve user’s experience, systems and software.

By clicking ‘I Agree’ you will allow the use of indicated cookies, device identifiers, web beacons or other similar technologies. Your settings can be changed in the browser on your device.

For certain purposes, legitimate interests may be relied on, rather than consent. You can read more about this in our Privacy and Cookie Policy.